SCP
0 0 0 0 0 0 0 0 0 0 0 0 0 0 0 0 0 0 0 0 0 0 0 0 0 0 0 0 0 0 0 0 0 0 0 0 0 0 0 0 0 0 0
0 0 0 0 0 0 0 0 0 0 0 0 0 0 0 0 0 0 0 0 0 0 0 0 0 0 0 0 0 0 0 0 0 0 0 0 0 0 0 0 0 0 0
-0 0 0 0 0 0 0 0 0 0 0 0 0 0 0 0 0 0 0 0 0 0 0 0 0 0 0 0 0 0 0 0 0 0 0 0 0 0 0 0 0 0 0
0 0 0 0 0 0 0 0 0 0 0 0 0 0 0 0 0 0 0 0 0 0 0 0 0 0 0 0 0 0 0 0 0 0 0 0 0 0 0 0 0 0 0
0 0 0 0 -0 0 0 0 0 0 0 0 0 0 0 0 0 0 0 0 0 0 0 0 0 0 0 0 0 0 0 0 0 0 0 0 0 0 0 0 0 0 0
0 0 0 0 -0 0 0 0 0 0 0 0 0 0 0 0 0 0 0 0 0 0 0 0 0 0 0 0 0 0 0 0 0 0 0 0 0 0 0 0 0 0 0
0 0 0 -0 -0 0 0 0 0 0 0 0 0 0 0 0 0 0 0 0 0 0 0 0 0 0 0 0 0 0 0 0 0 0 0 0 0 0 0 0 0 0 0
0 0 0 -0 -0 0 0 0 0 0 0 0 0 0 0 0 0 0 0 0 0 0 0 0 0 0 0 0 0 0 0 0 0 0 0 0 0 0 0 0 0 0 0
0 0 0 0 -0 0 0 0 0 0 0 0 0 0 0 0 0 0 0 0 0 0 0 0 0 0 0 0 0 0 0 0 0 0 0 0 0 0 0 0 0 0 0
0 0 0 0 0 0 0 0 0 0 0 0 0 0 0 0 0 0 0 0 0 0 0 0 0 0 0 0 0 0 0 0 0 0 0 0 0 0 0 0 0 0 0
-0 0 0 0 0 0 0 0 0 0 0 0 0 0 0 0 0 0 0 0 0 0 0 0 0 0 0 0 0 0 0 0 0 0 0 0 0 0 0 0 0 0 0
0 0 0 0 0 0 0 0 0 0 0 0 0 0 0 0 0 0 0 0 0 0 0 0 0 0 0 0 0 0 0 0 0 0 0 0 0 0 0 0 0 0 0
0 0 0 0 0 0 0 0 0 0 0 0 0 0 0 0 0 -0 -0 -0 0 0 0 0 0 0 0 0 0 0 0 0 0 0 0 0 0 0 0 0 0 0 0
0 0 0 0 0 0 0 0 0 0 0 0 0 0 0 -0 -0 -0 -0 -0 0 0 0 0 0 0 0 0 0 0 0 0 0 0 0 0 0 0 0 0 0 0 0
0 0 0 -0 -0 0 0 0 0 0 0 0 -0 -0 -0 -0 -0 -0 -0 0 0 0 0 0 0 0 0 0 0 0 0 0 0 0 0 0 0 0 0 0 0 0 0
-0 -0 0 0 0 0 0 0 0 0 0 0 -0 -0 -0 -0 -0 -0 -0 0 0 0 0 0 0 0 0 0 0 0 0 0 0 0 0 0 0 0 0 0 0 0 0
-0 0 0 0 0 0 0 0 0 0 0 0 0 -0 -0 -0 -0 -0 -0 0 0 0 0 0 0 0 0 0 0 0 0 0 0 0 0 0 0 0 0 0 0 0 0
-0 0 0 0 0 0 0 0 0 0 0 0 0 0 -0 -0 -0 0 0 0 0 0 0 0 0 0 0 0 0 0 0 0 0 0 0 0 0 0 0 0 0 0 0
0 0 0 0 0 0 0 0 0 0 0 0 0 0 0 0 0 -0 -0 -0 0 0 0 0 0 0 0 0 0 0 0 0 0 0 0 0 0 0 0 0 0 0 0
0 0 0 0 0 0 0 0 0 0 0 0 0 0 0 0 0 0 0 0 0 0 0 0 0 0 0 0 0 0 0 0 0 0 0 0 0 0 0 0 0 0 0
0 0 0 0 0 0 0 0 0 0 0 0 0 0 0 0 0 0 0 0 0 0 0 0 0 0 0 0 0 0 0 0 0 0 0 0 0 0 0 0 0 0 0
0 0 0 0 0 0 0 0 0 0 0 0 0 0 0 0 0 0 0 0 0 0 0 0 0 -0 0 0 0 0 0 0 0 0 0 0 0 0 0 0 0 0 0
0 0 0 0 0 0 0 0 0 0 0 0 0 0 0 0 0 0 0 0 0 0 0 0 -0 -0 0 0 0 0 0 0 0 0 0 0 0 0 0 0 0 0 0
0 0 0 0 0 0 0 0 0 0 0 0 0 0 0 0 0 0 0 0 0 0 0 0 -0 -0 0 0 0 0 0 0 0 0 0 0 0 0 0 0 0 0 0
0 0 0 0 0 0 0 0 0 0 0 0 0 0 0 0 0 0 0 0 0 0 0 0 0 -0 0 0 0 0 0 0 0 0 0 0 0 -0 -0 -0 0 0 0
0 0 0 0 0 0 0 0 0 0 0 0 0 0 0 0 0 0 0 0 0 0 0 0 0 0 0 0 0 0 0 0 0 -0 -0 0 0 -0 -0 -0 0 0 0
Wind_Speed
2 2 2 2 3 2 3 3 3 4 4 4 4 4 5 5 5 5 4 11 12 10 9 9 8 9 9 9 9 8 7 7 7 7 7 7 6 6 6 6 6 6 6
2 2 2 3 3 3 2 3 4 4 4 4 5 5 5 4 5 6 5 7 12 12 11 10 9 9 9 9 10 10 10 9 8 8 8 8 7 7 7 7 7 7 6
2 2 2 2 2 2 3 4 4 4 4 4 5 5 4 5 5 6 6 5 6 11 13 11 10 10 9 10 10 10 10 10 9 9 9 8 8 8 7 8 8 7 7
3 3 3 2 2 2 3 3 3 4 4 4 4 4 4 4 6 6 5 5 5 5 9 13 12 11 11 11 11 10 10 10 10 10 9 9 8 8 8 8 7 7 6
3 3 3 2 2 3 3 3 3 3 3 3 4 4 4 4 5 5 6 6 5 5 5 9 12 13 12 12 11 11 11 11 10 10 9 9 8 8 8 8 8 7 7
3 3 3 3 3 3 3 3 4 3 3 2 4 5 4 4 4 5 5 4 5 6 6 6 6 8 12 12 12 12 11 11 10 9 9 9 8 8 8 7 7 7 7
3 3 3 3 3 3 3 3 3 4 3 2 3 3 3 4 4 4 4 4 5 5 5 6 5 4 5 11 12 12 12 11 10 10 9 9 9 8 8 7 7 7 6
3 3 3 3 3 3 3 3 3 2 2 2 2 2 2 4 4 4 4 4 4 4 5 5 5 5 4 4 7 11 11 11 10 9 8 8 8 8 8 7 7 7 6
3 3 3 3 3 2 2 2 2 3 2 1 2 3 3 1 1 3 4 3 4 3 3 3 5 5 5 4 4 7 10 11 10 9 8 8 8 8 8 7 7 7 7
3 3 3 3 3 2 2 2 2 2 3 2 1 2 2 3 2 1 3 3 3 3 4 4 4 4 4 4 5 8 10 11 12 11 9 8 8 8 8 8 7 7 6
3 3 2 2 2 2 2 2 2 2 2 2 2 1 2 2 2 2 0 3 3 3 2 3 3 3 4 3 3 6 10 11 12 12 10 9 9 9 9 9 8 7 6
2 3 2 2 2 2 2 2 2 2 2 2 2 2 2 2 1 2 2 0 1 2 2 2 2 2 2 3 4 8 9 10 11 12 12 11 11 10 11 11 11 10 8
1 2 2 2 2 1 2 2 2 2 2 2 2 1 1 1 2 2 3 1 0 2 3 2 2 2 2 2 3 6 7 8 10 11 11 12 12 12 12 13 13 12 10
0 1 1 2 2 2 2 2 2 2 2 2 2 2 1 1 1 2 2 3 1 2 2 3 2 2 2 2 3 5 4 7 8 9 10 10 11 11 11 12 12 11 10
1 2 2 2 2 3 2 3 2 2 2 2 2 2 1 1 1 1 1 2 3 1 1 2 2 2 2 1 2 2 2 5 6 7 8 8 8 9 10 10 10 10 10
1 2 2 2 3 3 3 3 2 2 3 2 2 2 2 1 1 1 1 1 2 3 1 2 1 2 2 2 3 2 2 5 6 6 7 7 7 7 8 8 8 8 9
2 2 2 2 2 2 2 2 2 2 3 3 2 3 2 2 2 1 1 1 1 2 2 1 1 2 2 2 3 2 2 2 3 6 6 6 6 7 7 7 7 7 7
2 2 2 3 2 2 2 2 2 2 3 2 2 2 2 2 2 2 1 1 1 1 2 1 1 2 2 2 2 2 2 2 2 5 6 6 6 6 6 6 6 7 7
2 2 2 2 2 2 2 2 2 2 2 2 2 2 1 2 2 1 1 1 1 1 1 1 1 1 1 2 2 2 3 3 3 3 5 5 5 6 6 6 6 6 6
3 2 2 2 2 2 2 2 2 2 2 1 1 1 1 1 1 1 1 1 1 2 2 1 0 1 1 2 1 1 2 3 3 3 4 4 5 6 6 6 6 5 5
3 2 2 1 1 2 2 3 2 2 2 1 1 1 0 1 1 1 1 1 2 1 1 1 0 1 1 1 1 1 1 2 2 2 2 3 3 3 3 5 6 6 6
2 2 2 2 2 1 3 5 4 2 2 1 0 1 1 1 1 1 1 2 4 3 2 1 1 1 2 2 1 1 0 1 3 2 1 3 2 2 3 2 4 6 6
3 3 2 2 2 2 3 4 5 3 2 2 1 1 0 1 1 1 2 3 2 1 2 3 2 3 2 3 1 1 1 1 2 2 1 3 2 3 3 3 6 6 6
3 3 3 3 2 3 4 4 5 3 2 1 2 2 2 1 1 2 2 1 1 1 1 2 3 3 2 2 3 2 2 1 2 2 0 2 2 3 4 3 6 6 6
3 3 2 3 3 3 4 5 4 2 2 2 2 2 2 2 2 2 2 1 1 2 2 1 0 1 2 2 1 1 1 1 2 2 1 1 2 3 3 3 4 7 7
3 3 2 2 3 3 3 4 5 3 2 1 1 1 2 3 2 2 2 2 1 2 1 2 2 3 3 3 2 1 2 1 1 2 1 1 2 2 3 2 2 3 4
Wind_Direction
58 47 38 42 43 51 63 66 66 64 61 54 56 57 46 39 34 29 18 33 39 46 53 56 56 53 48 42 41 46 51 53 55 55 52 51 51 51 51 49 48 49 48
75 68 53 48 46 52 64 75 77 75 63 59 52 48 43 37 34 33 28 27 34 40 46 51 52 50 48 46 47 52 52 53 55 55 52 51 53 53 50 50 47 48 47
78 84 77 61 49 60 72 76 73 68 65 59 49 44 42 38 39 36 33 27 24 33 39 46 48 48 48 50 50 53 52 52 52 53 51 50 51 51 52 51 48 47 45
76 81 79 66 61 72 77 80 74 72 61 57 51 38 36 36 38 39 38 32 29 29 31 39 44 47 49 50 49 50 51 52 52 53 52 50 49 49 52 49 46 47 45
64 77 76 68 73 79 76 90 71 79 78 70 67 48 36 37 32 39 38 34 32 33 30 33 38 42 45 44 43 44 45 48 48 49 50 49 47 46 47 48 47 46 44
66 76 76 68 73 81 74 81 87 69 73 75 76 58 39 35 36 34 31 32 30 33 33 33 27 28 37 40 39 39 39 40 41 41 43 43 42 43 44 44 43 42 43
66 77 80 69 71 85 96 103 96 81 61 51 74 45 21 32 41 31 25 33 31 29 34 33 29 26 22 30 31 35 35 36 37 38 40 42 42 41 41 38 36 36 40
57 78 84 81 77 91 88 87 100 98 62 41 96 89 26 2 9 22 22 33 27 24 31 32 29 29 22 18 19 29 28 28 30 32 36 38 38 38 37 34 30 31 38
59 73 82 85 82 93 109 107 116 125 130 53 64 124 129 202 326 354 14 22 21 24 15 17 29 24 22 17 7 18 26 25 23 25 31 36 38 37 36 35 35 37 41
54 70 85 89 88 88 100 111 107 118 132 129 66 58 108 148 137 10 347 1 17 22 12 16 15 14 13 12 14 24 27 24 23 23 28 35 36 36 34 33 36 40 46
38 58 78 89 89 87 93 90 92 97 117 136 137 119 86 67 89 129 353 338 355 355 1 3 4 3 2 7 4 22 28 26 25 27 36 41 41 38 34 31 35 43 51
18 36 62 73 82 83 89 91 93 96 98 109 118 128 138 136 145 135 147 289 336 326 340 351 1 354 353 2 10 23 27 29 31 32 37 39 38 37 35 37 42 48 54
12 6 46 72 76 82 90 91 87 82 87 102 119 121 126 138 144 139 133 144 12 325 333 340 341 347 355 1 357 14 24 30 33 34 35 36 36 36 36 38 42 47 51
205 33 62 78 79 81 82 84 77 74 77 86 91 104 107 113 132 142 146 141 92 355 348 325 330 344 347 352 358 10 15 27 33 34 33 34 35 34 34 35 37 38 42
115 88 83 80 75 77 84 88 75 64 73 72 79 86 88 72 100 117 134 146 141 131 314 310 319 327 334 351 2 15 9 20 29 32 31 33 34 33 34 34 34 32 33
101 101 94 86 80 78 84 88 79 70 78 60 66 76 66 50 70 87 112 113 128 149 195 280 284 311 337 7 20 21 11 15 19 23 26 30 30 29 29 31 31 29 27
132 124 123 109 96 87 90 93 87 87 84 67 60 75 63 57 65 67 88 99 104 125 154 286 309 325 349 359 356 2 7 7 3 16 22 24 24 23 24 28 30 28 25
139 132 120 110 105 99 101 109 106 96 96 86 74 78 65 72 63 60 79 94 117 142 151 208 319 337 341 343 345 354 4 9 358 9 11 13 15 14 16 19 20 20 18
132 122 120 127 131 129 125 130 125 113 111 108 102 98 88 89 67 58 70 72 74 89 118 150 283 326 327 343 358 358 3 354 355 5 4 4 1 4 7 8 8 6 5
144 146 148 155 154 145 143 139 124 115 108 96 97 109 118 134 163 149 102 101 97 80 81 91 11 338 328 326 11 358 350 352 346 354 355 356 357 357 356 357 356 354 354
158 159 148 150 154 154 165 156 145 135 129 99 39 357 39 146 158 161 143 156 131 110 96 86 31 354 333 332 325 314 322 326 326 340 337 340 344 342 342 342 344 344 345
156 150 162 168 172 184 162 160 153 144 143 141 146 320 331 345 30 76 126 134 141 143 158 153 192 239 271 262 266 291 330 2 318 325 346 317 335 315 311 308 322 330 334
160 162 181 176 196 210 181 167 165 150 154 171 190 214 345 34 72 83 61 56 60 104 162 167 185 227 242 239 215 256 243 227 254 292 343 299 310 297 298 313 316 319 325
167 182 192 194 201 215 195 182 173 160 163 195 207 204 210 253 182 147 118 79 22 334 275 204 203 228 240 232 202 211 220 255 287 302 338 281 300 294 303 303 313 320 326
178 189 187 189 200 231 206 190 172 154 171 220 232 218 209 223 224 166 135 140 339 318 335 14 235 302 323 325 134 105 64 28 308 300 291 254 291 303 298 293 307 320 322
185 183 189 198 203 228 223 203 180 160 173 213 259 267 237 214 221 181 165 167 223 275 317 357 1 352 347 344 7 163 186 194 262 290 285 266 292 324 310 293 301 314 315